Notices

What's New in latest Release from April 7th, 2021:

- Updated Glossary, including Speed of Maximum Gust, and Total Hourly Precipitation

- Updated national and regional climate services offices contacts and prices information

- Addition of station inventory lists for 1981-2010, 1971-2000, and 1961-1990 Normals.

If you haven't already, please take our survey and provide feedback about our website: https://eccc.sondage-survey.ca/f/LanguageSelection.aspx?s=442ca660-fcf1-47c0-95a9-59707d6fd709

Hourly Data Report for October 31, 2006

TORONTO CITY
ONTARIO

43°40'00.000" N
79°24'00.000" W
112.50 m
6158355
71508
XTO

Download Data

Hourly Data (October 2006)
Hourly Data Report for October 31, 2006
TIME
LST
Temp Definition
°C
Dew Point Definition
°C
Rel Hum Definition
%
Precip. Amount Definition
mm

Wind Dir Definition
10's deg

Wind Spd Definition
km/h
Visibility Definition
km
Stn Press Definition
kPa
Hmdx Definition


Wind Chill Definition


Weather Definition


00:00 8.3 5.2 81   LegendMM LegendMM   99.69     LegendNANA
01:00 7.9 5.2 83   LegendMM LegendMM   99.62     LegendNANA
02:00 8.4 5.9 84   LegendMM LegendMM   99.55     LegendNANA
03:00 7.8 5.9 88   LegendMM LegendMM   99.49     LegendNANA
04:00 8.6 7.1 90   LegendMM LegendMM   99.44     LegendNANA
05:00 10.1 8.0 87   LegendMM LegendMM   99.40     LegendNANA
06:00 11.2 7.8 80   LegendMM LegendMM   99.39     LegendNANA
07:00 11.3 7.7 78   LegendMM LegendMM   99.37     LegendNANA
08:00 12.3 8.3 77   LegendMM LegendMM   99.40     LegendNANA
09:00 12.2 8.1 76   LegendMM LegendMM   99.37     LegendNANA
10:00 12.4 8.3 76   LegendMM LegendMM   99.35     LegendNANA
11:00 13.0 8.7 75   LegendMM LegendMM   99.34     LegendNANA
12:00 14.6 10.0 74   LegendMM LegendMM   99.29     LegendNANA
13:00 13.6 9.9 78   LegendMM LegendMM   99.29     LegendNANA
14:00 14.0 10.9 82   LegendMM LegendMM   99.31     LegendNANA
15:00 13.8 11.1 84   LegendMM LegendMM   99.37     LegendNANA
16:00 12.4 10.1 86   LegendMM LegendMM   99.44     LegendNANA
17:00 14.7 5.2 53   LegendMM LegendMM   99.51     LegendNANA
18:00 12.6 4.7 59   LegendMM LegendMM   99.65     LegendNANA
19:00 11.1 3.2 58   LegendMM LegendMM   99.78     LegendNANA
20:00 10.0 3.0 62   LegendMM LegendMM   99.89     LegendNANA
21:00 9.1 3.3 67   LegendMM LegendMM   99.99     LegendNANA
22:00 8.6 2.2 64   LegendMM LegendMM   100.05     LegendNANA
23:00 7.5 2.0 68   LegendMM LegendMM   100.10     LegendNANA

Notes on Data Quality.

Legend

  • E = Estimated
  • M = Missing
  • NA = Not Available*
  • [empty] = Indicates an unobserved value
Date modified: